15min,AgWx,bigpiney,439,05JAN2019:00:00:00,10.3,12.68,6.2,6.1,6.3,6.7,5.9,86,87,85,0.173,3.0,3.5,2.5,5.152,3.0,235,22,5.2,-0.00005,-0.00005,29.2,30.9,9,0,0,0.0,0.00,0.00,0.00
15min,AgWx,bigpiney,439,05JAN2019:00:15:00,10.0,12.68,6.8,6.2,5.5,6.2,5.3,86,87,85,0.176,2.2,3.2,1.8,3.266,3.6,234,31,5.2,-0.00004,-0.00004,29.2,30.9,9,0,0,0.0,0.00,0.00,0.00
15min,AgWx,bigpiney,439,05JAN2019:00:30:00,9.6,12.67,6.1,5.2,5.4,6.2,4.9,86,87,85,0.168,2.1,3.1,1.5,0.504,1.5,281,51,3.5,-0.00007,-0.00009,29.2,30.9,9,0,0,0.0,0.00,0.00,0.00
15min,AgWx,bigpiney,439,05JAN2019:00:45:00,9.2,12.65,6.9,6.6,6.2,6.7,5.2,88,89,87,0.180,3.3,4.0,2.2,1.337,0.4,95,61,1.5,-0.00011,-0.00016,29.2,30.9,9,0,0,0.0,0.00,0.00,0.00
15min,AgWx,bigpiney,439,05JAN2019:01:00:00,8.9,12.64,4.4,4.0,5.2,6.5,4.0,86,87,85,0.156,1.9,3.6,0.6,2.674,2.1,312,23,2.7,-0.00006,-0.00007,29.2,30.9,9,0,0,0.0,0.00,0.00,0.00
15min,AgWx,bigpiney,439,05JAN2019:01:15:00,8.5,12.64,4.3,3.7,3.8,4.1,3.6,86,86,86,0.155,0.6,0.9,0.4,1.907,2.1,305,8.8,3.4,-0.00006,-0.00007,29.2,30.9,9,0,0,0.0,0.00,0.00,0.00
15min,AgWx,bigpiney,439,05JAN2019:01:30:00,8.1,12.62,6.1,5.4,4.9,5.8,3.7,88,89,86,0.170,2.0,3.0,0.5,0.614,2.4,328,8.1,3.3,-0.00005,-0.00006,29.2,30.9,9,0,0,0.0,0.00,0.00,0.00
15min,AgWx,bigpiney,439,05JAN2019:01:45:00,7.8,12.62,4.0,3.6,4.8,5.5,3.5,87,89,84,0.151,1.7,2.7,-0.3,1.754,1.4,244,34,2.6,-0.00007,-0.00009,29.1,30.9,9,0,0,0.0,0.00,0.00,0.00
15min,AgWx,bigpiney,439,05JAN2019:02:00:00,7.3,12.61,7.2,6.1,5.3,6.1,3.6,87,88,85,0.177,2.3,3.4,0.0,0.965,1.3,279,21,1.8,-0.00008,-0.00010,29.1,30.9,9,0,0,0.0,0.00,0.00,0.00
15min,AgWx,bigpiney,439,05JAN2019:02:15:00,6.7,12.61,6.3,6.3,5.9,6.4,5.2,88,89,86,0.180,3.1,3.9,1.9,2.521,1.7,233,8.8,2.5,-0.00007,-0.00009,29.1,30.9,9,0,0,0.0,0.00,0.00,0.00
15min,AgWx,bigpiney,439,05JAN2019:02:30:00,6.0,12.59,7.4,4.6,3.1,6.1,1.3,85,90,82,0.164,-0.4,3.4,-2.6,1.03,1.8,233,12,3.2,-0.00006,-0.00007,29.1,30.9,9,0,0,0.0,0.00,0.00,0.00
15min,AgWx,bigpiney,439,05JAN2019:02:45:00,5.6,12.59,4.6,5.0,6.1,7.1,4.9,88,90,85,0.165,3.3,4.7,1.7,1.096,1.0,296,19,2.0,-0.00009,-0.00012,29.1,30.9,9,0,0,0.0,0.00,0.00,0.00
15min,AgWx,bigpiney,439,05JAN2019:03:00:00,5.4,12.59,4.8,5.2,4.8,5.9,3.1,87,89,82,0.169,1.8,3.4,-1.0,1.71,2.0,288,12,2.5,-0.00006,-0.00008,29.0,30.9,9,0,0,0.0,0.00,0.00,0.00
15min,AgWx,bigpiney,439,05JAN2019:03:15:00,5.1,12.57,5.1,3.8,4.0,5.1,2.7,86,88,84,0.157,0.7,2.0,-1.1,2.039,1.6,271,11,2.2,-0.00007,-0.00008,29.0,30.9,9,0,0,0.0,0.00,0.00,0.00
15min,AgWx,bigpiney,439,05JAN2019:03:30:00,4.8,12.57,0.7,0.2,2.8,5.5,0.1,85,89,80,0.127,-0.8,2.8,-4.4,1.513,1.4,240,16,2.2,-0.00006,-0.00008,29.0,30.8,9,0,0,0.0,0.00,0.00,0.00
15min,AgWx,bigpiney,439,05JAN2019:03:45:00,4.3,12.56,1.0,0.4,0.7,3.5,-0.9,84,91,82,0.129,-3.0,1.4,-5.2,2.543,2.1,221,17,4.0,-0.00005,-0.00006,28.9,30.9,9,0,0,0.0,0.00,0.00,0.00
15min,AgWx,bigpiney,439,05JAN2019:04:00:00,3.9,12.55,6.9,3.5,0.8,4.5,-0.4,85,92,83,0.160,-2.6,2.6,-4.3,1.776,2.0,249,16,2.9,-0.00005,-0.00006,28.9,30.8,9,0,0,0.0,0.00,0.00,0.00
15min,AgWx,bigpiney,439,05JAN2019:04:15:00,3.7,12.54,0.1,2.8,4.2,6.1,2.8,87,91,84,0.148,1.2,4.0,-0.8,2.85,1.2,245,23,2.9,-0.00008,-0.00010,28.9,30.7,9,0,0,0.0,0.00,0.00,0.00
15min,AgWx,bigpiney,439,05JAN2019:04:30:00,3.4,12.53,-0.4,-1.4,-0.1,3.1,-1.4,82,86,80,0.116,-4.2,-0.3,-5.7,2.302,2.5,223,8.8,3.2,-0.00004,-0.00004,28.9,30.8,9,0,0,0.0,0.00,0.00,0.00
15min,AgWx,bigpiney,439,05JAN2019:04:45:00,3.0,12.52,-0.4,-0.9,-1.1,-0.7,-1.4,83,84,82,0.121,-5.0,-4.5,-5.4,2.609,3.0,220,4.0,3.6,-0.00003,-0.00003,28.8,30.7,9,0,0,0.0,0.00,0.00,0.00
15min,AgWx,bigpiney,439,05JAN2019:05:00:00,2.8,12.51,-0.3,-0.7,-0.6,-0.2,-0.9,84,84,83,0.122,-4.4,-4.0,-4.8,0.066,2.2,243,23,3.2,-0.00004,-0.00005,28.8,30.8,9,0,0,0.0,0.00,0.00,0.00
15min,AgWx,bigpiney,439,05JAN2019:05:15:00,2.7,12.5,0.1,-0.4,-0.8,-0.2,-1.2,83,85,82,0.125,-4.7,-3.8,-5.2,0,1.2,237,12,2.0,-0.00006,-0.00008,28.8,30.8,9,0,0,0.0,0.00,0.00,0.00
15min,AgWx,bigpiney,439,05JAN2019:05:30:00,2.5,12.49,0.4,-1.1,-1.4,-0.4,-1.7,83,84,82,0.121,-5.4,-4.0,-5.8,1.447,1.1,214,7.8,2.2,-0.00006,-0.00008,28.7,30.8,9,0,0,0.0,0.00,0.00,0.00
15min,AgWx,bigpiney,439,05JAN2019:05:45:00,2.2,12.48,-0.4,-0.9,-0.7,0.5,-1.0,84,87,83,0.121,-4.4,-2.6,-5.0,1.074,2.0,227,8.3,2.6,-0.00005,-0.00006,28.7,30.8,9,0,0,0.0,0.00,0.00,0.00
15min,AgWx,bigpiney,439,05JAN2019:06:00:00,1.9,12.46,-1.4,-2.1,-1.4,-0.8,-2.1,83,83,82,0.112,-5.4,-4.7,-6.3,1.206,0.9,230,6.5,1.7,-0.00007,-0.00009,28.7,30.7,9,0,0,0.0,0.00,0.00,0.00
15min,AgWx,bigpiney,439,05JAN2019:06:15:00,1.7,12.45,0.7,-0.7,-0.3,1.3,-2.1,84,88,81,0.121,-3.9,-1.5,-6.2,0,0.8,196,8.6,1.6,-0.00007,-0.00010,28.6,30.8,9,0,0,0.0,0.00,0.00,0.00
15min,AgWx,bigpiney,439,05JAN2019:06:30:00,1.3,12.44,1.9,1.3,1.1,1.5,-0.6,86,87,83,0.138,-2.2,-1.6,-4.5,0.833,0.1,108,1.8,0.9,-0.00010,-0.00016,28.6,30.7,9,0,0,0.0,0.00,0.00,0.00
15min,AgWx,bigpiney,439,05JAN2019:06:45:00,1.2,12.44,2.3,2.1,1.8,2.2,1.1,86,87,85,0.143,-1.5,-0.9,-2.3,0.592,1.5,90,41,2.0,-0.00006,-0.00008,28.6,30.7,9,0,0,0.0,0.00,0.00,0.00
15min,AgWx,bigpiney,439,05JAN2019:07:00:00,1.3,12.44,-0.5,-1.1,0.4,2.1,-1.2,83,85,82,0.119,-3.5,-1.3,-5.4,1.359,0.8,56,21,1.5,-0.00007,-0.00010,28.5,30.7,9,0,0,0.0,0.00,0.00,0.00
15min,AgWx,bigpiney,439,05JAN2019:07:15:00,1.3,12.42,0.4,-0.2,-0.3,0.4,-1.2,84,85,83,0.126,-4.0,-3.1,-5.1,0.592,1.0,24,16,2.0,-0.00006,-0.00009,28.5,30.7,9,0,0,0.0,0.00,0.00,0.00
15min,AgWx,bigpiney,439,05JAN2019:07:30:00,1.2,12.43,0.2,-0.4,-0.7,-0.2,-1.3,84,85,82,0.125,-4.4,-3.8,-5.4,0.395,0.2,280,32,0.7,-0.00009,-0.00014,28.4,30.7,9,0,0,0.0,0.00,0.00,0.00
15min,AgWx,bigpiney,439,05JAN2019:07:45:00,1.0,12.43,1.7,0.8,0.3,0.9,-0.5,85,85,84,0.134,-3.3,-2.6,-4.2,0.68,0.6,232,20,1.7,-0.00008,-0.00011,28.4,30.7,9,2,0,0.0,0.00,0.00,0.00
15min,AgWx,bigpiney,439,05JAN2019:08:00:00,0.9,14.99,0.3,0.6,1.1,1.5,0.6,85,85,83,0.130,-2.4,-2.0,-3.3,1.688,1.5,244,11,2.1,-0.00005,-0.00006,28.4,30.6,9,16,0,0.0,0.00,0.00,0.00
15min,AgWx,bigpiney,439,05JAN2019:08:15:00,1.2,14.99,0.1,-0.2,0.3,1.2,-0.2,83,85,82,0.124,-3.6,-2.2,-4.3,2.126,1.9,233,10,2.3,-0.00005,-0.00004,28.3,30.7,9,51,0,0.0,0.00,0.00,0.00
15min,AgWx,bigpiney,439,05JAN2019:08:30:00,1.8,15,3.8,2.7,0.9,2.7,-0.2,84,86,83,0.147,-2.8,-0.7,-4.2,1.929,2.4,229,7.6,2.9,-0.00001,0.00001,28.3,30.6,9,75,0,0.0,0.00,0.00,0.00
15min,AgWx,bigpiney,439,05JAN2019:08:45:00,3.4,14.97,7.1,6.2,4.2,6.2,2.8,86,87,85,0.175,0.8,3.1,-0.6,0,0.8,222,7.5,2.2,0.00012,0.00013,28.3,30.7,9,145,0,0.0,0.00,0.00,0.00
15min,AgWx,bigpiney,439,05JAN2019:09:00:00,6.2,14.99,9.7,9.1,7.5,9.1,6.4,86,87,86,0.201,4.3,6.0,3.1,0.767,0.3,190,7.5,1.3,0.00034,0.00036,28.2,30.6,9,230,0,0.0,0.00,0.00,0.00
15min,AgWx,bigpiney,439,05JAN2019:09:15:00,9.4,15,8.7,7.7,8.5,10.1,7.6,86,87,85,0.185,5.2,7.1,4.1,0.658,0.8,349,48,1.4,0.00036,0.00039,28.2,30.6,9,237,0,0.0,0.00,0.00,0.00
15min,AgWx,bigpiney,439,05JAN2019:09:30:00,12.2,14.67,9.0,9.3,9.1,9.8,7.8,87,87,86,0.200,5.9,6.7,4.4,1.885,0.5,355,13,1.9,0.00043,0.00046,28.2,30.6,9,260,0,0.0,0.00,0.00,0.00
15min,AgWx,bigpiney,439,05JAN2019:09:45:00,14.6,14.66,10.6,9.8,9.3,9.8,8.8,86,87,86,0.206,6.0,6.7,5.4,0.833,0.7,20,21,1.8,0.00031,0.00034,28.2,30.6,9,201,0,0.0,0.00,0.00,0.00
15min,AgWx,bigpiney,439,05JAN2019:10:00:00,16.1,14.64,10.6,10.2,10.0,10.3,9.8,86,87,86,0.208,6.7,7.2,6.4,2.039,1.5,50,12,2.3,0.00033,0.00037,28.1,30.6,9,187,0,0.0,0.00,0.00,0.00
15min,AgWx,bigpiney,439,05JAN2019:10:15:00,16.7,14.78,10.2,9.7,9.8,10.4,9.2,86,87,85,0.202,6.4,7.2,5.7,3.135,2.6,48,10,3.7,0.00036,0.00040,28.1,30.6,9,196,0,0.0,0.00,0.00,0.00
15min,AgWx,bigpiney,439,05JAN2019:10:30:00,17.0,14.64,10.7,10.3,10.2,10.4,9.8,86,86,85,0.206,6.7,7.1,6.3,1.863,2.3,72,10,3.2,0.00033,0.00037,28.1,30.5,9,159,0,0.0,0.00,0.00,0.00
15min,AgWx,bigpiney,439,05JAN2019:10:45:00,17.0,14.72,12.4,10.9,10.6,11.1,10.2,85,86,84,0.209,6.9,7.5,6.5,2.28,1.7,105,18,3.2,0.00052,0.00057,28.1,30.6,9,269,0,0.0,0.00,0.00,0.00
15min,AgWx,bigpiney,439,05JAN2019:11:00:00,17.9,14.63,12.2,12.0,11.8,12.3,11.0,83,85,81,0.211,7.6,8.3,7.1,2.083,2.2,103,16,4.0,0.00072,0.00079,28.1,30.6,9,373,0,0.0,0.00,0.00,0.00
15min,AgWx,bigpiney,439,05JAN2019:11:15:00,19.1,14.61,13.9,14.2,12.9,14.2,11.9,81,82,79,0.231,8.0,9.1,7.2,1.82,1.8,118,15,3.4,0.00065,0.00072,28.1,30.5,9,303,0,0.0,0.00,0.00,0.00
15min,AgWx,bigpiney,439,05JAN2019:11:30:00,20.1,14.56,15.3,15.0,14.2,15.2,13.5,78,80,77,0.233,8.7,9.6,8.0,1.315,2.2,123,17,3.6,0.00072,0.00080,28.2,30.5,9,324,0,0.0,0.00,0.00,0.00
15min,AgWx,bigpiney,439,05JAN2019:11:45:00,21.0,14.54,17.0,16.4,15.9,16.6,15.0,76,78,74,0.237,9.6,10.7,8.8,1.271,2.0,102,19,3.9,0.00088,0.00098,28.2,30.4,9,383,0,0.0,0.00,0.00,0.00
15min,AgWx,bigpiney,439,05JAN2019:12:00:00,22.3,14.51,18.4,18.0,17.5,18.2,16.4,73,75,72,0.246,10.4,11.1,9.7,0.066,1.2,87,39,3.1,0.00094,0.00102,28.2,30.5,9,372,0,0.0,0.00,0.00,0.00
15min,AgWx,bigpiney,439,05JAN2019:12:15:00,23.7,14.51,16.9,16.7,17.7,18.4,16.7,73,74,72,0.236,10.4,11.3,9.6,4.56,3.0,46,9.5,5.2,0.00091,0.00103,28.2,30.5,9,374,0,0.0,0.00,0.00,0.00
15min,AgWx,bigpiney,439,05JAN2019:12:30:00,24.4,14.5,17.6,16.9,16.9,17.4,16.4,74,75,73,0.236,10.0,10.7,9.4,4.45,4.1,32,7.6,5.4,0.00081,0.00093,28.2,30.5,9,342,0,0.0,0.00,0.00,0.00
15min,AgWx,bigpiney,439,05JAN2019:12:45:00,24.8,14.48,19.5,19.5,18.4,19.6,17.0,72,74,70,0.261,11.0,12.0,9.7,4.034,4.1,64,22,5.5,0.00083,0.00096,28.2,30.4,9,330,0,0.0,0.00,0.00,0.00
15min,AgWx,bigpiney,439,05JAN2019:13:00:00,25.0,14.47,18.9,19.1,19.6,20.1,19.0,71,72,70,0.252,11.6,12.3,10.8,6.423,4.8,65,14,7.8,0.00082,0.00097,28.3,30.5,9,319,0,0.0,0.00,0.00,0.00
15min,AgWx,bigpiney,439,05JAN2019:13:15:00,25.1,14.53,20.4,20.0,19.1,20.1,18.5,70,72,69,0.260,11.1,12.1,10.4,4.165,5.0,65,17,7.1,0.00080,0.00095,28.3,30.5,9,313,0,0.0,0.00,0.00,0.00
15min,AgWx,bigpiney,439,05JAN2019:13:30:00,25.1,14.5,19.5,19.6,19.8,20.2,19.5,69,71,68,0.249,11.4,12.2,10.9,5.371,4.2,73,14,5.9,0.00072,0.00086,28.3,30.5,9,260,0,0.0,0.00,0.00,0.00
15min,AgWx,bigpiney,439,05JAN2019:13:45:00,25.0,14.51,19.7,19.2,19.6,20.2,19.2,69,70,68,0.245,11.1,11.8,10.5,4.056,3.7,43,24,5.2,0.00072,0.00085,28.3,30.5,9,262,0,0.0,0.00,0.00,0.00
15min,AgWx,bigpiney,439,05JAN2019:14:00:00,25.0,14.57,21.0,19.7,19.5,19.9,19.2,69,70,68,0.252,10.9,11.8,10.4,2.236,2.8,25,11,3.9,0.00065,0.00076,28.4,30.5,9,236,0,0.0,0.00,0.00,0.00
15min,AgWx,bigpiney,439,05JAN2019:14:15:00,24.9,14.5,21.1,20.2,19.8,20.2,19.5,68,69,68,0.256,11.1,11.5,10.7,1.206,1.9,354,16,3.2,0.00059,0.00068,28.4,30.6,9,210,0,0.0,0.00,0.00,0.00
15min,AgWx,bigpiney,439,05JAN2019:14:30:00,24.9,14.54,20.4,20.2,20.2,20.5,19.9,68,69,68,0.257,11.4,11.9,11.0,1.82,2.3,329,22,3.3,0.00053,0.00063,28.4,30.5,9,182,0,0.0,0.00,0.00,0.00
15min,AgWx,bigpiney,439,05JAN2019:14:45:00,24.8,14.55,21.0,20.4,20.3,20.6,20.0,68,69,68,0.259,11.6,12.1,11.2,1.82,1.5,326,19,2.9,0.00045,0.00052,28.4,30.5,9,152,0,0.0,0.00,0.00,0.00
15min,AgWx,bigpiney,439,05JAN2019:15:00:00,24.6,14.53,21.2,20.7,20.6,21.1,20.2,68,69,67,0.258,11.7,12.5,11.2,1.25,1.3,303,20,3.1,0.00038,0.00044,28.5,30.5,9,124,0,0.0,0.00,0.00,0.00
15min,AgWx,bigpiney,439,05JAN2019:15:15:00,24.4,14.6,21.2,20.9,20.8,21.0,20.7,69,70,68,0.267,12.2,12.6,11.8,2.74,2.3,328,10,3.2,0.00034,0.00042,28.5,30.6,9,100,0,0.0,0.00,0.00,0.00
15min,AgWx,bigpiney,439,05JAN2019:15:30:00,24.1,14.56,21.6,21.2,21.0,21.3,20.9,69,70,68,0.266,12.4,12.9,12.1,2.587,2.5,305,11,3.2,0.00029,0.00037,28.5,30.5,9,78,0,0.0,0.00,0.00,0.00
15min,AgWx,bigpiney,439,05JAN2019:15:45:00,23.9,13.83,22.2,21.7,21.5,21.7,21.2,68,69,67,0.270,12.5,13.1,12.1,1.841,2.2,287,11,2.9,0.00024,0.00032,28.5,30.6,9,59,0,0.0,0.00,0.00,0.00
15min,AgWx,bigpiney,439,05JAN2019:16:00:00,23.6,13.37,22.3,22.0,21.9,22.0,21.7,68,69,67,0.274,12.8,13.3,12.5,1.491,1.7,275,13,2.4,0.00019,0.00025,28.6,30.6,9,44,0,0.0,0.00,0.00,0.00
15min,AgWx,bigpiney,439,05JAN2019:16:15:00,23.5,13.21,22.4,22.0,22.0,22.1,21.9,68,69,68,0.278,13.2,13.5,12.9,0.066,0.4,297,9.9,1.5,0.00009,0.00011,28.6,30.6,9,33,0,0.0,0.00,0.00,0.00
15min,AgWx,bigpiney,439,05JAN2019:16:30:00,23.4,13.09,22.3,21.9,22.1,22.2,21.9,69,70,69,0.282,13.6,13.8,13.4,0,0.3,301,3.1,1.2,0.00003,0.00004,28.6,30.6,9,22,0,0.0,0.00,0.00,0.00
15min,AgWx,bigpiney,439,05JAN2019:16:45:00,23.2,12.99,22.3,21.9,21.9,22.0,21.9,69,70,69,0.277,13.4,13.9,13.2,0,0.1,222,0.6,0.8,-0.00003,-0.00003,28.7,30.5,9,12,0,0.0,0.00,0.00,0.00
15min,AgWx,bigpiney,439,05JAN2019:17:00:00,23.0,12.92,21.2,20.9,21.5,22.0,20.9,73,76,69,0.291,14.1,14.6,13.3,2.17,1.6,230,10,2.3,0.00005,0.00009,28.7,30.5,9,4,0,0.0,0.00,0.00,0.00
15min,AgWx,bigpiney,439,05JAN2019:17:15:00,22.6,12.9,20.4,20.0,20.4,20.9,20.0,76,76,75,0.283,13.9,14.4,13.7,2.477,2.3,226,6.7,3.1,0.00002,0.00003,28.7,30.5,9,1,0,0.0,0.00,0.00,0.00
15min,AgWx,bigpiney,439,05JAN2019:17:30:00,22.2,12.88,20.4,19.9,20.0,20.2,19.9,76,76,75,0.282,13.6,13.7,13.5,3.31,3.1,231,4.4,3.9,0.00003,0.00004,28.7,30.6,9,0,0,0.0,0.00,0.00,0.00
15min,AgWx,bigpiney,439,05JAN2019:17:45:00,21.9,12.86,20.3,19.8,19.9,20.0,19.7,77,78,76,0.287,13.8,14.0,13.7,2.784,2.9,226,13,4.1,0.00002,0.00003,28.7,30.6,9,0,0,0.0,0.00,0.00,0.00
15min,AgWx,bigpiney,439,05JAN2019:18:00:00,21.7,12.84,20.2,20.0,19.8,20.0,19.7,78,78,77,0.288,14.0,14.1,13.9,2.521,2.4,226,13,3.3,0.00001,0.00002,28.7,30.6,9,0,0,0.0,0.00,0.00,0.00
15min,AgWx,bigpiney,439,05JAN2019:18:15:00,21.6,12.84,21.2,20.6,20.1,20.6,19.8,78,78,77,0.293,14.3,14.5,14.0,3.902,3.3,218,5.6,4.6,0.00003,0.00004,28.8,30.6,9,0,0,0.0,0.00,0.00,0.00
15min,AgWx,bigpiney,439,05JAN2019:18:30:00,21.7,12.82,21.4,21.0,20.9,21.1,20.6,76,77,75,0.293,14.5,14.7,14.3,5.349,3.4,239,52,6.0,0.00003,0.00005,28.8,30.6,9,0,0,0.0,0.00,0.00,0.00
15min,AgWx,bigpiney,439,05JAN2019:18:45:00,21.8,12.82,21.5,21.1,21.0,21.2,20.9,77,77,76,0.300,14.9,15.2,14.5,0,2.1,261,58,5.7,0.00001,0.00002,28.8,30.7,9,0,0,0.0,0.00,0.00,0.00
15min,AgWx,bigpiney,439,05JAN2019:19:00:00,22.0,12.8,20.4,20.1,20.7,21.2,20.1,78,80,77,0.298,15.1,15.6,14.9,1.425,2.0,345,41,2.9,0.00000,0.00001,28.8,30.7,9,0,0,0.0,0.00,0.00,0.00
15min,AgWx,bigpiney,439,05JAN2019:19:15:00,22.0,12.8,20.4,20.0,19.9,20.1,19.6,81,81,80,0.296,14.8,15.0,14.7,2.411,1.8,349,62,3.6,-0.00000,0.00000,28.8,30.7,9,0,0,0.0,0.00,0.00,0.00
15min,AgWx,bigpiney,439,05JAN2019:19:30:00,22.0,12.79,20.4,19.9,19.8,20.0,19.7,81,82,80,0.301,14.9,15.3,14.6,2.061,1.2,304,59,2.6,-0.00002,-0.00002,28.8,30.6,9,0,0,0.0,0.00,0.00,0.00
15min,AgWx,bigpiney,439,05JAN2019:19:45:00,21.9,12.78,20.1,19.8,19.9,20.1,19.7,81,82,80,0.302,15.1,15.2,14.9,4.012,2.4,161,11,4.0,0.00001,0.00001,28.9,30.6,9,0,0,0.0,0.00,0.00,0.00
15min,AgWx,bigpiney,439,05JAN2019:20:00:00,21.7,12.77,20.4,20.1,19.9,20.1,19.7,81,82,80,0.299,15.1,15.2,14.9,3.288,3.4,167,13,4.5,0.00002,0.00003,28.9,30.6,9,0,0,0.0,0.00,0.00,0.00
15min,AgWx,bigpiney,439,05JAN2019:20:15:00,21.7,12.77,20.6,20.0,19.9,20.1,19.8,80,81,80,0.299,14.9,15.1,14.7,3.266,2.7,172,13,3.3,0.00001,0.00002,28.9,30.7,9,0,0,0.0,0.00,0.00,0.00
15min,AgWx,bigpiney,439,05JAN2019:20:30:00,21.7,12.75,20.8,20.3,20.4,20.7,20.0,80,81,79,0.301,15.2,15.4,15.1,4.823,2.8,148,36,4.8,0.00001,0.00002,28.9,30.7,9,0,0,0.0,0.00,0.00,0.00
15min,AgWx,bigpiney,439,05JAN2019:20:45:00,21.9,12.74,20.0,19.7,20.1,20.4,19.7,81,82,80,0.296,15.3,15.6,14.7,5.7,6.0,34,30,10.0,0.00004,0.00005,28.9,30.7,9,0,0,0.0,0.00,0.00,0.00
15min,AgWx,bigpiney,439,05JAN2019:21:00:00,22.0,12.73,20.6,20.1,19.9,20.1,19.7,81,82,79,0.295,14.9,15.0,14.6,0,1.9,97,50,9.5,0.00000,0.00001,28.9,30.7,9,0,0,0.0,0.00,0.00,0.00
15min,AgWx,bigpiney,439,05JAN2019:21:15:00,22.0,12.73,20.1,19.7,19.9,20.2,19.6,81,83,79,0.302,15.0,15.3,14.7,3.508,4.6,341,20,7.5,0.00003,0.00004,28.9,30.8,9,0,0,0.0,0.00,0.00,0.00
15min,AgWx,bigpiney,439,05JAN2019:21:30:00,22.0,12.73,20.2,19.8,19.7,19.8,19.6,83,83,82,0.306,15.3,15.5,15.1,1.973,3.2,339,14,5.7,0.00001,0.00002,28.9,30.7,9,0,0,0.0,0.00,0.00,0.00
15min,AgWx,bigpiney,439,05JAN2019:21:45:00,22.0,12.72,20.4,20.0,19.9,20.1,19.7,83,83,82,0.307,15.5,15.7,15.4,3.047,3.6,207,34,6.9,0.00002,0.00003,28.9,30.7,9,0,0,0.0,0.00,0.00,0.00
15min,AgWx,bigpiney,439,05JAN2019:22:00:00,21.9,12.7,20.0,19.7,19.8,20.0,19.6,83,83,83,0.305,15.5,15.8,15.3,2.28,2.9,197,14,5.0,0.00001,0.00002,29.0,30.7,9,0,0,0.0,0.00,0.00,0.00
15min,AgWx,bigpiney,439,05JAN2019:22:15:00,21.8,12.7,20.2,19.8,19.6,19.8,19.6,84,84,83,0.306,15.5,15.6,15.4,3.749,2.3,245,17,3.7,0.00000,0.00000,29.0,30.7,9,0,0,0.0,0.00,0.00,0.00
15min,AgWx,bigpiney,439,05JAN2019:22:30:00,21.8,12.69,20.3,19.9,19.9,20.0,19.7,82,83,82,0.304,15.3,15.6,15.2,1.469,3.4,213,11,5.0,0.00002,0.00003,29.0,30.7,9,0,0,0.0,0.00,0.00,0.00
15min,AgWx,bigpiney,439,05JAN2019:22:45:00,21.8,12.68,20.2,19.8,20.0,20.2,19.7,82,83,81,0.306,15.4,15.6,15.2,2.609,1.8,328,68,4.7,-0.00001,-0.00000,29.0,30.7,9,0,0,0.0,0.00,0.00,0.00
15min,AgWx,bigpiney,439,05JAN2019:23:00:00,21.8,12.68,20.1,19.7,19.8,19.9,19.7,83,83,82,0.303,15.4,15.6,15.3,0.745,1.5,350,25,3.2,-0.00001,-0.00001,29.0,30.7,9,0,0,0.0,0.00,0.00,0.00
15min,AgWx,bigpiney,439,05JAN2019:23:15:00,21.8,12.68,20.5,19.9,19.7,19.9,19.6,83,84,82,0.306,15.4,15.5,15.2,1.162,0.6,34,35,2.3,-0.00003,-0.00004,29.0,30.7,9,0,0,0.0,0.00,0.00,0.00
15min,AgWx,bigpiney,439,05JAN2019:23:30:00,21.8,12.67,20.2,19.8,19.9,20.0,19.7,83,84,82,0.309,15.5,15.8,15.2,1.82,1.7,332,45,3.2,-0.00001,-0.00001,29.0,30.7,9,0,0,0.0,0.00,0.00,0.00
15min,AgWx,bigpiney,439,05JAN2019:23:45:00,21.9,12.65,20.6,20.1,19.9,20.2,19.7,83,84,82,0.307,15.7,15.8,15.6,2.17,2.5,301,16,4.3,0.00000,0.00001,29.0,30.7,9,0,0,0.0,0.00,0.00,0.00
15min,AgWx,blo,425,05JAN2019:00:00:00,17.1,12.94,18.1,17.9,18.6,19.1,17.9,93,95,90,0.319,16.8,17.2,16.4,2.433,2.1,117,19,3.2,-0.00008,-0.00010,32.8,34.3,22,0,100,21.2,12.89,0.00,0.00
15min,AgWx,blo,425,05JAN2019:00:15:00,17.1,12.92,19.2,18.6,18.2,18.6,17.7,94,95,94,0.331,16.8,17.4,16.2,3.376,2.0,94,28,4.3,-0.00009,-0.00011,32.8,34.3,22,0,100,21.3,12.90,0.00,0.00
15min,AgWx,blo,425,05JAN2019:00:30:00,17.2,12.92,19.0,18.5,18.4,18.7,18.1,94,95,94,0.330,17.1,17.4,16.7,2.258,2.1,88,19,3.3,-0.00009,-0.00011,32.8,34.3,22,0,100,21.1,12.89,0.00,0.00
15min,AgWx,blo,425,05JAN2019:00:45:00,17.3,12.92,18.5,18.4,18.5,18.8,18.4,95,95,95,0.327,17.3,17.6,17.1,1.118,1.1,68,30,2.9,-0.00011,-0.00015,32.8,34.3,21,0,100,23.1,12.90,0.00,0.00
15min,AgWx,blo,425,05JAN2019:01:00:00,17.7,12.91,16.6,16.3,17.8,18.4,16.3,94,95,93,0.295,16.4,17.3,14.6,1.732,1.0,283,26,2.1,-0.00011,-0.00016,32.8,34.3,22,0,100,23.8,12.90,0.00,0.00
15min,AgWx,blo,425,05JAN2019:01:15:00,17.9,12.9,18.8,18.5,17.3,18.5,16.3,95,96,93,0.330,16.1,17.4,14.7,3.332,2.5,291,21,3.5,-0.00008,-0.00010,32.8,34.3,22,0,100,22.7,12.90,0.00,0.00
15min,AgWx,blo,425,05JAN2019:01:30:00,18.3,12.9,17.7,17.7,18.2,18.5,17.6,94,95,94,0.315,16.8,17.2,16.1,0.921,2.2,293,25,3.2,-0.00008,-0.00010,32.8,34.3,22,0,100,23.2,12.89,0.00,0.00
15min,AgWx,blo,425,05JAN2019:01:45:00,18.6,12.9,17.2,16.9,17.0,17.6,16.5,94,94,93,0.305,15.4,16.1,14.9,2.674,2.4,235,6.0,3.7,-0.00008,-0.00009,32.8,34.3,22,0,100,22.5,12.89,0.00,0.00
15min,AgWx,blo,425,05JAN2019:02:00:00,18.6,12.89,16.3,16.3,16.6,17.0,16.3,94,94,93,0.296,15.1,15.5,14.7,2.017,3.2,237,6.7,4.7,-0.00006,-0.00007,32.8,34.3,22,0,100,21.3,12.89,0.00,0.00
15min,AgWx,blo,425,05JAN2019:02:15:00,18.3,12.89,15.9,15.8,15.7,16.3,15.3,93,94,93,0.288,14.1,14.7,13.6,1.71,2.4,238,12,3.4,-0.00007,-0.00009,32.8,34.3,22,0,100,20.3,12.89,0.00,0.00
15min,AgWx,blo,425,05JAN2019:02:30:00,17.9,12.87,18.1,17.4,16.7,17.5,15.7,94,94,93,0.311,15.2,16.1,14.0,1.469,1.1,280,13,2.0,-0.00010,-0.00014,32.8,34.3,22,0,100,19.1,12.89,0.00,0.00
15min,AgWx,blo,425,05JAN2019:02:45:00,17.3,12.87,17.6,17.5,17.8,18.0,17.4,94,95,94,0.315,16.4,16.7,15.9,0,0.5,67,50,2.3,-0.00013,-0.00019,32.8,34.3,22,0,100,20.7,12.90,0.00,0.00
15min,AgWx,blo,425,05JAN2019:03:00:00,17.2,12.86,17.7,17.5,17.6,17.9,17.2,94,95,94,0.315,16.2,16.6,15.7,1.425,0.8,192,28,1.8,-0.00012,-0.00016,32.8,34.3,22,0,100,22.5,12.90,0.00,0.00
15min,AgWx,blo,425,05JAN2019:03:15:00,17.3,12.87,18.3,17.9,17.5,18.0,17.3,94,95,94,0.321,16.1,16.7,15.8,0,0.6,259,16,1.6,-0.00012,-0.00018,32.8,34.3,22,0,100,22.6,12.89,0.00,0.00
15min,AgWx,blo,425,05JAN2019:03:30:00,17.5,12.86,16.7,16.7,17.2,18.0,16.5,94,94,93,0.301,15.6,16.7,14.9,1.425,1.3,314,19,2.0,-0.00010,-0.00013,32.8,34.3,22,0,100,21.9,12.90,0.00,0.00
15min,AgWx,blo,425,05JAN2019:03:45:00,17.3,12.85,15.7,15.7,15.6,16.7,14.6,93,94,91,0.289,13.9,15.1,12.4,1.513,0.9,324,39,1.6,-0.00011,-0.00015,32.8,34.3,22,0,100,20.0,12.89,0.00,0.00
15min,AgWx,blo,425,05JAN2019:04:00:00,16.8,12.85,15.2,15.0,15.0,15.6,14.7,93,94,92,0.278,13.3,14.1,12.9,2.039,2.2,335,7.9,2.8,-0.00007,-0.00009,32.8,34.3,22,0,100,18.4,12.89,0.00,0.00
15min,AgWx,blo,425,05JAN2019:04:15:00,16.4,12.82,15.7,15.1,15.1,15.2,15.0,93,93,93,0.279,13.4,13.5,13.3,2.302,2.3,328,8.6,2.9,-0.00007,-0.00009,32.8,34.3,22,0,100,19.2,12.90,0.00,0.00
15min,AgWx,blo,425,05JAN2019:04:30:00,16.1,12.83,16.0,15.6,15.4,15.6,15.2,93,93,93,0.286,13.7,14.0,13.5,2.477,2.1,309,6.4,2.8,-0.00008,-0.00009,32.8,34.3,22,0,100,18.9,12.90,0.00,0.00
15min,AgWx,blo,425,05JAN2019:04:45:00,16.2,12.83,16.0,16.1,16.1,16.3,15.6,93,94,93,0.291,14.5,14.7,14.0,0.986,1.7,319,8.8,2.8,-0.00009,-0.00011,32.8,34.3,22,0,100,20.8,12.90,0.00,0.00
15min,AgWx,blo,425,05JAN2019:05:00:00,16.3,12.82,16.3,15.6,15.2,16.1,14.6,92,93,91,0.288,13.3,14.4,12.5,0.877,1.8,281,14,2.8,-0.00008,-0.00010,32.8,34.3,22,0,100,20.4,12.90,0.00,0.00
15min,AgWx,blo,425,05JAN2019:05:15:00,16.6,12.81,16.0,15.5,15.9,16.7,15.1,93,94,91,0.283,14.1,15.2,13.0,0.526,1.5,285,19,2.2,-0.00009,-0.00012,32.8,34.3,22,0,100,21.3,12.90,0.00,0.00
15min,AgWx,blo,425,05JAN2019:05:30:00,16.7,12.81,14.8,14.9,15.4,16.0,14.9,92,93,91,0.273,13.6,14.3,12.9,2.587,0.9,238,19,2.6,-0.00010,-0.00014,32.8,34.3,21,0,100,21.6,12.90,0.00,0.00
15min,AgWx,blo,425,05JAN2019:05:45:00,16.8,12.8,15.4,15.0,14.8,15.0,14.7,92,92,92,0.275,12.9,13.1,12.7,1.293,2.1,259,8.0,3.1,-0.00007,-0.00009,32.8,34.3,22,0,100,20.2,12.89,0.00,0.00
15min,AgWx,blo,425,05JAN2019:06:00:00,17.0,12.79,16.9,16.9,16.6,17.4,14.9,94,94,92,0.302,15.1,16.0,13.1,0.723,1.7,286,22,2.7,-0.00009,-0.00011,32.8,34.3,21,0,100,21.9,12.89,0.00,0.00
15min,AgWx,blo,425,05JAN2019:06:15:00,17.3,12.78,17.8,17.1,16.9,17.1,16.7,93,93,93,0.306,15.2,15.5,15.0,0.921,1.1,262,21,1.9,-0.00010,-0.00014,32.8,34.3,22,0,100,22.7,12.89,0.00,0.00
15min,AgWx,blo,425,05JAN2019:06:30:00,17.7,12.77,17.8,17.7,17.5,17.8,17.2,94,94,93,0.315,16.0,16.2,15.6,0.658,1.0,285,15,1.7,-0.00011,-0.00015,32.8,34.3,22,0,100,23.2,12.90,0.00,0.00
15min,AgWx,blo,425,05JAN2019:06:45:00,17.9,12.77,16.7,17.1,17.6,17.8,17.1,93,93,93,0.303,15.9,16.2,15.3,2.981,1.3,266,16,3.0,-0.00010,-0.00013,32.8,34.3,21,0,100,23.1,12.89,0.00,0.00
15min,AgWx,blo,425,05JAN2019:07:00:00,18.1,12.76,15.9,16.2,16.5,17.1,16.2,92,93,92,0.290,14.7,15.3,14.3,2.105,2.1,244,12,2.8,-0.00008,-0.00010,32.8,34.3,22,0,100,21.6,12.89,0.00,0.00
15min,AgWx,blo,425,05JAN2019:07:15:00,18.1,12.75,17.5,16.7,16.0,16.7,15.8,92,94,92,0.302,14.2,15.2,13.8,1.535,1.6,259,29,2.3,-0.00009,-0.00011,32.7,34.3,22,0,100,21.5,12.90,0.00,0.00
15min,AgWx,blo,425,05JAN2019:07:30:00,18.1,12.74,17.9,17.8,17.6,18.0,16.7,94,94,93,0.315,16.1,16.5,15.2,2.674,1.7,292,10,2.7,-0.00009,-0.00012,32.8,34.3,22,0,100,22.9,12.90,0.00,0.00
15min,AgWx,blo,425,05JAN2019:07:45:00,18.3,12.73,17.5,17.5,17.8,17.9,17.5,93,94,93,0.309,16.1,16.4,15.8,0.986,1.5,293,18,3.2,-0.00009,-0.00012,32.7,34.3,22,2,100,22.8,12.89,0.00,0.00
15min,AgWx,blo,425,05JAN2019:08:00:00,18.5,12.74,17.3,17.2,17.4,17.6,17.2,93,93,93,0.306,15.7,15.9,15.5,1.381,1.9,296,13,3.1,-0.00008,-0.00010,32.7,34.3,22,7,100,22.6,12.89,0.00,0.00
15min,AgWx,blo,425,05JAN2019:08:15:00,18.6,12.76,16.8,16.9,17.3,17.5,16.9,93,93,92,0.301,15.6,15.9,15.1,0.811,1.4,276,28,2.4,-0.00022,-0.00023,32.7,34.3,22,18,100,23.2,12.89,0.00,0.00
15min,AgWx,blo,425,05JAN2019:08:30:00,18.7,12.84,17.4,17.3,16.9,17.3,16.7,93,93,92,0.308,15.2,15.7,14.9,2.148,1.7,246,7.8,2.6,-0.00013,-0.00013,32.7,34.3,22,47,100,24.1,12.89,0.00,0.00
15min,AgWx,blo,425,05JAN2019:08:45:00,18.9,12.89,17.8,17.7,17.5,17.8,17.3,93,93,93,0.313,15.9,16.2,15.6,0.855,1.7,227,14,2.6,-0.00002,-0.00001,32.7,34.3,21,55,100,25.2,12.90,0.00,0.00